Content
SEND FEEDBACK

Daily
Averages
Monthly
Summary
Mexico

LEONA VICARIO, QUINTANA ROO


Home > North America > Mexico > Quintana Roo
Elevation: 26 feet     Latitude: 20 59N     Longitude: 087 12W

WEATHER
 
SELECT A DAY
Number of Records: 163,723;   Date Range: 1/1/95 - 7/28/14
 
SHARE

PRINT THIS DATA

[ ← Previous Day ]
WEATHER ALMANAC - OCTOBER 1, 2013
[ Next Day → ]
[ °C ]   °F
Weather ElementAverageHighLow
Temperature79 °F86 °F (9:43 am)69.8 °F (1:44 am)
Dewpoint72 °F75.2 °F (11:44 pm)68 °F (3:46 am)
Humidity80.1 %100 % (1:44 am)62 % (9:43 am)
Barometer29.91 in29.95 in (8:50 am)29.88 in (3:46 am)
Wind Speed4.1 mph10.4 mph (4:41 pm)
Weather ElementAverage
Visibility7 mi
Wind DirectionNE (42.6 °)

Weather ElementTotal
Precipitation---
Cooling Degree Days12.9 (Base 65)
Growing Degree Days27.9 (Base 50)
Averaged from 23 records on October 1, 2013
WEATHER CONDITIONS BREAKOUT
WIND DIRECTION BREAKOUT
WEATHER BY HOUR - OCTOBER 1, 2013
[ °C ]   °F
Local TimeTemperatureDewpointHumidityBarometerVisibilityWind DirectionWind SpeedGust SpeedPrecipitationEventsConditions
1:44 AM69.8 °F69.8 °F100 %29.91 in7.0 miCalmPartly Cloudy
2:43 AM69.8 °F69.8 °F100 %29.90 in7.0 miCalmScattered Clouds
3:46 AM69.8 °F68.0 °F94 %29.88 in7.0 miENE (60°)5.8 mphScattered Clouds
4:45 AM69.8 °F68.0 °F94 %29.89 in7.0 miCalmPartly Cloudy
5:46 AM69.8 °F68.0 °F94 %29.91 in7.0 miCalmPartly Cloudy
6:44 AM69.8 °F68.0 °F94 %29.91 in7.0 miCalmPartly Cloudy
7:43 AM73.4 °F73.4 °F100 %29.93 in7.0 miCalmScattered Clouds
8:50 AM82.4 °F73.4 °F74 %29.95 in7.0 miENE (60°)3.5 mphScattered Clouds
9:43 AM86.0 °F71.6 °F62 %29.94 in7.0 miESE (120°)4.6 mphScattered Clouds
10:49 AM86.0 °F73.4 °F66 %29.95 in7.0 miNE (50°)5.8 mphScattered Clouds
11:44 AM86.0 °F73.4 °F66 %29.94 in7.0 miEast (100°)5.8 mphScattered Clouds
12:47 PM86.0 °F73.4 °F66 %29.94 in7.0 miNE (50°)9.2 mphScattered Clouds
1:41 PM86.0 °F73.4 °F66 %29.91 in7.0 miNE (50°)9.2 mphScattered Clouds
2:43 PM86.0 °F71.6 °F62 %29.90 in7.0 miEast (100°)8.1 mphScattered Clouds
3:43 PM86.0 °F73.4 °F66 %29.89 in7.0 miEast (100°)6.9 mphScattered Clouds
4:41 PM84.2 °F73.4 °F70 %29.88 in7.0 miENE (60°)10.4 mphPartly Cloudy
5:48 PM82.4 °F73.4 °F74 %29.88 in7.0 miNNE (20°)8.1 mphClear
6:45 PM80.6 °F73.4 °F79 %29.89 in7.0 miENE (60°)3.5 mphClear
7:43 PM78.8 °F71.6 °F78 %29.89 in7.0 miNE (50°)3.5 mphClear
8:41 PM78.8 °F73.4 °F83 %29.91 in7.0 miNE (50°)5.8 mphClear
9:45 PM78.8 °F73.4 °F83 %29.94 in7.0 miNNE (20°)2.3 mphClear
10:41 PM78.8 °F73.4 °F83 %29.93 in7.0 miCalmPartly Cloudy
11:44 PM78.8 °F75.2 °F89 %29.93 in7.0 miNNE (30°)2.3 mphClear
Hourly data recorded from MMUN, located miles away from Leona Vicario, Quintana Roo







STORIES FROM OUR PARTNERS